When you browse on this site, cookies collect data to enhance your experience and personalize the content and advertising you see.
Visit our Privacy Policy to learn more. By continuing to use the site, you agree to this use of cookies and data.
  • In Slovakia
  • List of Countries
  • For 7 days
  • Water Temperature
  • Satellite Maps
  • Weather Map
  • Weather Widgets
  • user-avatar
    Login

    Hourly Weather Encamp

    Today, 20 July, Saturday

    Time Temperature Precipitation Wind Pressure Humidity
    00:00 +14°C° 0 mm 1 mps 625 mmHg 80%
    01:00 +15°C° 0 mm 1 mps 625 mmHg 78%
    02:00 +15°C° 0 mm 1 mps 625 mmHg 77%
    03:00 +15°C° 0 mm 1 mps 625 mmHg 75%
    04:00 +16°C° 0.1 mm 1 mps 625 mmHg 75%
    05:00 +16°C° 0.1 mm 1 mps 626 mmHg 75%
    06:00 +18°C° 0.1 mm 1 mps 626 mmHg 76%
    07:00 +20°C° 0 mm 1 mps 627 mmHg 66%
    08:00 +22°C° 0 mm 1 mps 628 mmHg 57%
    09:00 +24°C° 0 mm 2 mps 629 mmHg 48%
    10:00 +25°C° 0 mm 2 mps 630 mmHg 44%
    11:00 +26°C° 0 mm 2 mps 630 mmHg 41%
    12:00 +27°C° 0 mm 2 mps 630 mmHg 38%
    13:00 +27°C° 0 mm 3 mps 630 mmHg 38%
    14:00 +27°C° 0 mm 3 mps 630 mmHg 38%
    15:00 +27°C° 0 mm 3 mps 630 mmHg 39%
    16:00 +25°C° 0.2 mm 2 mps 629 mmHg 47%
    17:00 +24°C° 0.2 mm 2 mps 629 mmHg 54%
    18:00 +23°C° 0.2 mm 2 mps 629 mmHg 62%
    19:00 +21°C° 0.1 mm 1 mps 628 mmHg 70%
    20:00 +19°C° 0.1 mm 1 mps 628 mmHg 77%
    21:00 +15°C° 0.1 mm 0 mps 627 mmHg 84%
    22:00 +16°C° 0 mm 1 mps 628 mmHg 82%
    23:00 +15°C° 0 mm 1 mps 628 mmHg 81%

    Tomorrow, 21 July, Sunday

    Time Temperature Precipitation Wind Pressure Humidity
    00:00 +15°C° 0 mm 1 mps 628 mmHg 80%
    01:00 +15°C° 0 mm 1 mps 628 mmHg 79%
    02:00 +15°C° 0 mm 1 mps 628 mmHg 79%
    03:00 +14°C° 0 mm 1 mps 628 mmHg 79%
    04:00 +15°C° 0 mm 1 mps 628 mmHg 75%
    05:00 +16°C° 0 mm 1 mps 629 mmHg 71%
    06:00 +18°C° 0 mm 1 mps 629 mmHg 68%
    07:00 +20°C° 0 mm 1 mps 630 mmHg 59%
    08:00 +21°C° 0 mm 2 mps 631 mmHg 51%
    09:00 +25°C° 0 mm 2 mps 632 mmHg 42%
    10:00 +26°C° 0 mm 2 mps 632 mmHg 40%
    11:00 +27°C° 0 mm 2 mps 633 mmHg 38%
    12:00 +28°C° 0 mm 2 mps 633 mmHg 36%
    13:00 +28°C° 0 mm 2 mps 633 mmHg 36%
    14:00 +28°C° 0 mm 2 mps 633 mmHg 37%
    15:00 +28°C° 0 mm 2 mps 632 mmHg 37%
    16:00 +26°C° 0.2 mm 2 mps 632 mmHg 46%
    17:00 +25°C° 0.2 mm 1 mps 631 mmHg 54%
    18:00 +24°C° 0.2 mm 1 mps 631 mmHg 62%
    19:00 +22°C° 0 mm 1 mps 631 mmHg 66%
    20:00 +20°C° 0 mm 1 mps 630 mmHg 71%
    21:00 +16°C° 0 mm 0 mps 630 mmHg 75%
    22:00 +18°C° 0 mm 1 mps 630 mmHg 74%
    23:00 +18°C° 0 mm 1 mps 630 mmHg 73%

    Day after tomorrow, 22 July, Monday

    Time Temperature Precipitation Wind Pressure Humidity
    00:00 +16°C° 0 mm 1 mps 630 mmHg 73%
    01:00 +16°C° 0 mm 1 mps 629 mmHg 72%
    02:00 +16°C° 0 mm 1 mps 629 mmHg 71%
    03:00 +16°C° 0 mm 1 mps 629 mmHg 71%
    04:00 +18°C° 0 mm 1 mps 629 mmHg 69%
    05:00 +19°C° 0 mm 1 mps 630 mmHg 67%
    06:00 +19°C° 0 mm 1 mps 630 mmHg 65%
    07:00 +22°C° 0 mm 1 mps 631 mmHg 55%
    08:00 +25°C° 0 mm 1 mps 632 mmHg 46%
    09:00 +27°C° 0 mm 1 mps 633 mmHg 36%
    10:00 +28°C° 0 mm 1 mps 633 mmHg 34%
    11:00 +29°C° 0 mm 2 mps 633 mmHg 32%
    12:00 +29°C° 0 mm 2 mps 633 mmHg 30%
    13:00 +28°C° 0.3 mm 2 mps 633 mmHg 36%
    14:00 +27°C° 0.3 mm 2 mps 632 mmHg 42%
    15:00 +26°C° 0.3 mm 2 mps 631 mmHg 48%
    16:00 +25°C° 0.1 mm 2 mps 631 mmHg 52%
    17:00 +24°C° 0.1 mm 1 mps 630 mmHg 57%
    18:00 +23°C° 0.1 mm 1 mps 630 mmHg 62%
    19:00 +22°C° 0 mm 1 mps 630 mmHg 63%
    20:00 +20°C° 0 mm 1 mps 629 mmHg 65%
    21:00 +19°C° 0 mm 1 mps 629 mmHg 67%
    22:00 +19°C° 0 mm 1 mps 629 mmHg 64%
    23:00 +18°C° 0 mm 1 mps 629 mmHg 62%

    23 July, Tuesday

    Time Temperature Precipitation Wind Pressure Humidity
    00:00 +18°C° 0 mm 1 mps 629 mmHg 60%
    01:00 +18°C° 0 mm 1 mps 628 mmHg 57%
    02:00 +18°C° 0 mm 1 mps 628 mmHg 54%
    03:00 +18°C° 0 mm 1 mps 628 mmHg 51%
    04:00 +19°C° 0 mm 1 mps 628 mmHg 52%
    05:00 +19°C° 0 mm 1 mps 628 mmHg 52%
    06:00 +20°C° 0 mm 1 mps 629 mmHg 52%
    07:00 +23°C° 0 mm 1 mps 630 mmHg 45%
    08:00 +25°C° 0 mm 1 mps 631 mmHg 38%
    09:00 +28°C° 0 mm 1 mps 632 mmHg 31%
    10:00 +28°C° 0 mm 1 mps 631 mmHg 31%
    11:00 +29°C° 0 mm 1 mps 631 mmHg 30%
    12:00 +29°C° 0 mm 2 mps 631 mmHg 30%
    13:00 +28°C° 0 mm 1 mps 631 mmHg 34%
    14:00 +27°C° 0 mm 1 mps 630 mmHg 38%
    15:00 +27°C° 0 mm 1 mps 629 mmHg 42%
    16:00 +25°C° 0.1 mm 1 mps 629 mmHg 47%
    17:00 +24°C° 0.1 mm 1 mps 628 mmHg 53%
    18:00 +23°C° 0.1 mm 1 mps 628 mmHg 59%
    19:00 +22°C° 0 mm 1 mps 628 mmHg 61%
    20:00 +20°C° 0 mm 1 mps 628 mmHg 63%
    21:00 +19°C° 0 mm 1 mps 627 mmHg 65%
    22:00 +19°C° 0 mm 1 mps 627 mmHg 64%
    23:00 +18°C° 0 mm 1 mps 627 mmHg 62%

    24 July, Wednesday

    Time Temperature Precipitation Wind Pressure Humidity
    00:00 +18°C° 0 mm 1 mps 627 mmHg 61%
    01:00 +18°C° 0 mm 1 mps 627 mmHg 59%
    02:00 +18°C° 0 mm 1 mps 627 mmHg 57%
    03:00 +18°C° 0 mm 1 mps 627 mmHg 55%
    04:00 +18°C° 0 mm 1 mps 627 mmHg 56%
    05:00 +19°C° 0 mm 1 mps 627 mmHg 57%
    06:00 +20°C° 0 mm 1 mps 628 mmHg 59%
    07:00 +22°C° 0 mm 1 mps 629 mmHg 51%
    08:00 +25°C° 0 mm 1 mps 629 mmHg 44%
    09:00 +27°C° 0 mm 1 mps 630 mmHg 37%
    10:00 +28°C° 0 mm 1 mps 630 mmHg 35%
    11:00 +28°C° 0 mm 2 mps 630 mmHg 34%
    12:00 +29°C° 0 mm 2 mps 630 mmHg 33%
    13:00 +27°C° 0 mm 2 mps 629 mmHg 39%
    14:00 +26°C° 0 mm 1 mps 629 mmHg 46%
    15:00 +24°C° 0 mm 1 mps 628 mmHg 52%
    16:00 +24°C° 0 mm 1 mps 628 mmHg 54%
    17:00 +23°C° 0 mm 1 mps 627 mmHg 57%
    18:00 +23°C° 0 mm 1 mps 627 mmHg 59%
    19:00 +21°C° 0 mm 1 mps 627 mmHg 63%
    20:00 +20°C° 0 mm 1 mps 626 mmHg 66%
    21:00 +18°C° 0 mm 1 mps 626 mmHg 70%
    22:00 +18°C° 0 mm 1 mps 626 mmHg 69%
    23:00 +18°C° 0 mm 1 mps 626 mmHg 69%

    25 July, Thursday

    Time Temperature Precipitation Wind Pressure Humidity
    00:00 +16°C° 0 mm 1 mps 626 mmHg 69%
    01:00 +16°C° 0 mm 1 mps 625 mmHg 68%
    02:00 +16°C° 0 mm 1 mps 625 mmHg 67%
    03:00 +16°C° 0 mm 1 mps 625 mmHg 66%
    04:00 +18°C° 0 mm 1 mps 626 mmHg 66%
    05:00 +18°C° 0 mm 1 mps 626 mmHg 66%
    06:00 +19°C° 0 mm 1 mps 626 mmHg 66%
    07:00 +21°C° 0 mm 1 mps 627 mmHg 58%
    08:00 +24°C° 0 mm 1 mps 628 mmHg 51%
    09:00 +26°C° 0 mm 1 mps 629 mmHg 43%
    10:00 +27°C° 0 mm 1 mps 629 mmHg 40%
    11:00 +28°C° 0 mm 2 mps 629 mmHg 37%
    12:00 +29°C° 0 mm 2 mps 630 mmHg 35%
    13:00 +28°C° 0 mm 2 mps 629 mmHg 39%
    14:00 +27°C° 0 mm 1 mps 628 mmHg 43%
    15:00 +27°C° 0 mm 1 mps 628 mmHg 47%
    16:00 +25°C° 0 mm 1 mps 628 mmHg 51%
    17:00 +24°C° 0 mm 1 mps 627 mmHg 55%
    18:00 +23°C° 0 mm 1 mps 627 mmHg 59%
    19:00 +22°C° 0 mm 1 mps 627 mmHg 63%
    20:00 +20°C° 0 mm 1 mps 627 mmHg 67%
    21:00 +18°C° 0 mm 1 mps 626 mmHg 71%
    22:00 +18°C° 0 mm 1 mps 626 mmHg 71%
    23:00 +18°C° 0 mm 1 mps 626 mmHg 71%
    Show more